Glasgow, MT

8:17 PM MST on February 25, 2017 (GMT -0700)
Wokal-Glasgow International

Weather History for KGGW - August, 2013

Change the Weather History Date:

Friday, August 30, 2013

  Actual Average Record
Temperature  
Mean Temperature 78 °F 66 °F  
Max Temperature 94 °F 80 °F 104 °F (1921)
Min Temperature 61 °F 52 °F 37 °F (1912)
Degree Days  
Heating Degree Days 0 3  
Month to date heating degree days 5 31  
Since 1 June heating degree days 99 154  
Since 1 July heating degree days 15 49  
Cooling Degree Days 13 4  
Month to date cooling degree days 243 193  
Year to date cooling degree days 473 492  
Since 1 June cooling degree days 464 475  
Growing Degree Days 27 (Base 50)    
Moisture  
Dew Point 51 °F    
Average Humidity 52    
Maximum Humidity 84    
Minimum Humidity 20    
Precipitation  
Precipitation 0.00 in 0.04 in 1.22 in (1957)
Month to date precipitation 0.18 1.21  
Year to date precipitation 12.59 9.14  
Snow  
Snow 0.00 in 0.00 in 0.00 in (2002)
Month to date snowfall 0.0 0.0  
Since 1 June snowfall 0.0 0.0  
Since 1 July snowfall 0.0 0.0  
Snow Depth 0.00 in    
Sea Level Pressure  
Sea Level Pressure 29.88 in    
Wind  
Wind Speed 6 mph (WNW)    
Max Wind Speed 13 mph    
Max Gust Speed 18 mph    
Visibility 10 miles    
Events      
T = Trace of Precipitation, MM = Missing Value Source: NWS Daily Summary

Daily Weather History Graph

Daily Weather History Graph

Search for Another Location

Airport or City:

Trip Planner

Search our weather history database for the weather conditions in past years. The results will help you decide how hot, cold, wet, or windy it might be!

Date:

Astronomy

Aug. 30, 2013 Rise Set
Actual Time 6:21 AM MDT 7:51 PM MDT
Civil Twilight 5:49 AM MDT 8:23 PM MDT
Nautical Twilight 5:09 AM MDT 9:02 PM MDT
Astronomical Twilight 4:26 AM MDT 9:45 PM MDT
Moon 12:48 AM MDT (8/30) 4:22 PM MDT (8/30)
Length of Visible Light 14h 34m
Length of Day
13h 29m
Waning Crescent, 28% of the Moon is Illuminated
Aug 30
Waning Crescent
Sep 5
New
Sep 12
First Quarter
Sep 19
Full
Sep 26
Last Quarter

Hourly Weather History & Observations

Time (MDT) Temp. Heat Index Dew Point Humidity Pressure Visibility Wind Dir Wind Speed Gust Speed Precip Events Conditions
12:53 AM 66.9 °F - 55.0 °F 66% 29.94 in 10.0 mi East 9.2 mph - N/A   Clear
1:53 AM 64.9 °F - 57.0 °F 75% 29.95 in 10.0 mi West 4.6 mph - N/A   Partly Cloudy
2:53 AM 66.0 °F - 55.9 °F 70% 29.92 in 10.0 mi Calm Calm - N/A   Clear
3:53 AM 66.0 °F - 55.9 °F 70% 29.93 in 10.0 mi Calm Calm - N/A   Clear
4:53 AM 66.9 °F - 55.9 °F 68% 29.91 in 10.0 mi SE 4.6 mph - N/A   Clear
5:53 AM 63.0 °F - 55.9 °F 78% 29.92 in 10.0 mi South 5.8 mph - N/A   Clear
6:53 AM 63.0 °F - 57.0 °F 81% 29.94 in 10.0 mi Calm Calm - N/A   Clear
7:53 AM 69.1 °F - 55.9 °F 63% 29.95 in 10.0 mi North 5.8 mph - N/A   Clear
8:53 AM 73.9 °F - 54.0 °F 50% 29.94 in 10.0 mi NNW 6.9 mph - N/A   Clear
9:53 AM 77.0 °F - 53.1 °F 43% 29.94 in 10.0 mi WSW 5.8 mph - N/A   Clear
10:53 AM 77.0 °F - 54.0 °F 45% 29.95 in 10.0 mi WNW 9.2 mph - N/A   Clear
11:53 AM 84.0 °F 82.6 °F 54.0 °F 35% 29.93 in 10.0 mi WNW 8.1 mph - N/A   Clear
12:53 PM 87.1 °F 85.1 °F 54.0 °F 32% 29.91 in 10.0 mi WNW 9.2 mph - N/A   Clear
1:53 PM 90.0 °F - 52.0 °F 27% 29.88 in 10.0 mi Variable 6.9 mph - N/A   Clear
2:53 PM 91.0 °F - 48.0 °F 23% 29.85 in 10.0 mi South 6.9 mph - N/A   Clear
3:53 PM 91.9 °F - 46.9 °F 21% 29.82 in 10.0 mi SW 10.4 mph - N/A   Clear
4:53 PM 93.0 °F - 46.0 °F 20% 29.81 in 10.0 mi SW 9.2 mph - N/A   Clear
5:53 PM 91.9 °F - 44.1 °F 19% 29.81 in 10.0 mi West 5.8 mph - N/A   Clear
6:53 PM 89.1 °F - 44.1 °F 21% 29.80 in 10.0 mi NW 9.2 mph - N/A   Clear
7:53 PM 82.0 °F - 45.0 °F 27% 29.81 in 10.0 mi NW 6.9 mph - N/A   Clear
8:53 PM 77.0 °F - 46.9 °F 34% 29.82 in 10.0 mi NW 5.8 mph - N/A   Clear
9:53 PM 73.9 °F - 46.9 °F 38% 29.83 in 10.0 mi NNW 3.5 mph - N/A   Scattered Clouds
10:53 PM 70.0 °F - 48.0 °F 46% 29.83 in 10.0 mi North 8.1 mph - N/A   Clear
11:53 PM 68.0 °F - 48.0 °F 49% 29.85 in 10.0 mi NNW 5.8 mph - N/A   Clear